Weather History for Atlantic City, NJ

Change the Weather History Date:

Thursday, November 29, 2012

  Actual Average Record
Temperature  
Mean Temperature 36 °F 42 °F  
Max Temperature 47 °F 51 °F 71 °F (1998)
Min Temperature 25 °F 33 °F 17 °F (1955)
Degree Days  
Heating Degree Days 29 23  
Month to date heating degree days 653 525  
Since 1 July heating degree days 939 883  
Cooling Degree Days 0 0  
Month to date cooling degree days 0 0  
Year to date cooling degree days 1218 1054  
Moisture  
Dew Point 23 °F    
Average Humidity 56    
Maximum Humidity 75    
Minimum Humidity 37    
Precipitation  
Precipitation 0.00 in 0.11 in 1.93 in (1963)
Month to date precipitation 1.34 3.15  
Year to date precipitation 41.45 37.94  
Snow  
Snow 0.00 in 0.00 in T in (1976)
Month to date snowfall 2.5 0.2  
Since 1 July snowfall 2.5 0.2  
Since 1 September snowfall 2.5 0.2  
Snow Depth 0.00 in    
Sea Level Pressure  
Sea Level Pressure 30.38 in    
Wind  
Wind Speed 6 mph (West)    
Max Wind Speed 15 mph    
Max Gust Speed 21 mph    
Visibility 10 miles    
Events      
T = Trace of Precipitation, MM = Missing Value Source: NWS Daily Summary

Daily Weather History Graph

Daily Weather History Graph

Search for Another Location

Airport:

Trip Planner

Search our weather history database for the weather conditions in past years. The results will help you decide how hot, cold, wet, or windy it might be!

Date:

Astronomy

Nov. 29, 2012 Rise Set
Actual Time 6:57 AM EST 4:35 PM EST
Civil Twilight 6:28 AM EST 5:05 PM EST
Nautical Twilight 5:54 AM EST 5:38 PM EST
Astronomical Twilight 5:22 AM EST 6:10 PM EST
Moon 5:36 PM EST (11/29) 7:42 AM EST (11/29)
Length of Visible Light 10h 36m
Length of Day
9h 37m
Full, 99% of the Moon is Illuminated
Nov 29
Full
Dec 6
Last Quarter
Dec 13
New
Dec 20
First Quarter
Dec 28
Full

Hourly Weather History & Observations

Time (EST) Temp. Windchill Dew Point Humidity Pressure Visibility Wind Dir Wind Speed Gust Speed Precip Events Conditions
12:54 AM 30.0 °F 25.2 °F 21.9 °F 72% 30.35 in 10.0 mi West 4.6 mph - N/A   Clear
1:54 AM 30.0 °F 24.1 °F 21.9 °F 72% 30.36 in 10.0 mi West 5.8 mph - N/A   Clear
2:54 AM 28.9 °F 22.8 °F 21.0 °F 72% 30.36 in 10.0 mi West 5.8 mph - N/A   Clear
3:54 AM 28.9 °F 22.8 °F 21.0 °F 72% 30.36 in 10.0 mi West 5.8 mph - N/A   Clear
4:54 AM 28.0 °F 22.8 °F 19.9 °F 72% 30.36 in 10.0 mi West 4.6 mph - N/A   Clear
5:54 AM 27.0 °F 23.0 °F 19.0 °F 72% 30.38 in 10.0 mi West 3.5 mph - N/A   Clear
6:54 AM 27.0 °F - 19.9 °F 75% 30.39 in 10.0 mi Calm Calm - N/A   Clear
7:54 AM 30.9 °F 25.2 °F 21.0 °F 67% 30.40 in 10.0 mi West 5.8 mph - N/A   Clear
8:54 AM 36.0 °F 29.6 °F 24.1 °F 62% 30.41 in 10.0 mi West 8.1 mph - N/A   Clear
9:54 AM 42.1 °F 36.6 °F 24.1 °F 49% 30.42 in 10.0 mi West 9.2 mph - N/A   Clear
10:54 AM 44.1 °F 37.7 °F 24.1 °F 45% 30.43 in 10.0 mi WNW 12.7 mph - N/A   Clear
11:54 AM 46.0 °F 39.9 °F 24.1 °F 42% 30.40 in 10.0 mi WNW 13.8 mph 19.6 mph N/A   Clear
12:54 PM 46.0 °F 41.4 °F 23.0 °F 40% 30.38 in 10.0 mi WNW 9.2 mph - N/A   Clear
1:54 PM 46.9 °F - 21.0 °F 36% 30.36 in 10.0 mi West 11.5 mph - N/A   Clear
2:54 PM 46.0 °F 41.9 °F 21.0 °F 37% 30.35 in 10.0 mi West 8.1 mph - N/A   Clear
3:54 PM 45.0 °F 40.6 °F 21.0 °F 39% 30.35 in 10.0 mi West 8.1 mph - N/A   Clear
4:54 PM 42.1 °F 39.2 °F 23.0 °F 47% 30.36 in 10.0 mi SW 4.6 mph - N/A   Clear
5:54 PM 39.0 °F 36.8 °F 23.0 °F 53% 30.37 in 10.0 mi SW 3.5 mph - N/A   Clear
6:54 PM 39.0 °F 34.0 °F 25.0 °F 57% 30.37 in 10.0 mi SW 6.9 mph - N/A   Clear
7:54 PM 37.0 °F 33.3 °F 26.1 °F 65% 30.37 in 10.0 mi SW 4.6 mph - N/A   Clear
8:54 PM 35.1 °F - 25.0 °F 67% 30.38 in 10.0 mi Calm Calm - N/A   Clear
9:54 PM 36.0 °F 31.1 °F 27.0 °F 70% 30.38 in 10.0 mi SW 5.8 mph - N/A   Clear
10:54 PM 36.0 °F 33.3 °F 28.0 °F 73% 30.37 in 10.0 mi SW 3.5 mph - N/A   Clear
11:54 PM 37.0 °F 31.6 °F 28.9 °F 73% 30.38 in 10.0 mi SW 6.9 mph - N/A   Clear